EW0600 Weather Reports


Display with metric or nautical units.
time (UTC)temp
F
wind
direction
speed
MPH
gust
MPH
rain 1hr
in
rain 24hr
in
rain mn
in
humidity
%
barometer
mb
20260504150336 58 275 17.0 24.0 0.00 0.00 0.00 50 995.2
20260504140329 59 323 24.0 37.0 0.00 0.00 0.00 47 994.8
20260504130300 59 279 16.0 24.0 0.00 0.00 0.00 55 994.1
20260504120241 57 264 13.0 19.0 0.00 0.00 0.00 55 993.6
20260504110159 56 235 14.0 20.0 0.00 0.00 0.00 54 992.8
20260504110104 55 230 13.0 21.0 0.00 0.00 0.00 54 992.9
20260504100105 55 230 12.0 16.0 0.00 0.00 0.00 55 993.4
20260504081502 54 221 10.0 14.0 0.00 0.00 0.00 54 995.1
20260504081037 55 229 10.0 12.0 0.00 0.00 0.00 55 995.1
20260504080104 54 222 10.0 12.0 0.00 0.00 0.00 54 995.4
20260504070106 54 217 9.0 12.0 0.00 0.00 0.00 52 996.4
20260504050356 55 200 5.0 6.0 0.00 0.00 0.00 54 998.4
20260504050006 54 204 5.0 6.0 0.00 0.00 0.00 54 998.6
20260504045411 54 200 3.0 5.0 0.00 0.00 0.00 54 998.6
20260504044602 54 184 3.0 5.0 0.00 0.00 0.00 54 998.8
20260504044403 54 195 2.0 4.0 0.00 0.00 0.00 54 998.8
20260504043415 54 139 0.0 3.0 0.00 0.00 0.00 54 999.0
20260504043003 53 162 1.0 3.0 0.00 0.00 0.00 54 999.1
20260504041601 54 163 1.0 4.0 0.00 0.00 0.00 52 999.3
20260504041300 55 174 1.0 2.0 0.00 0.00 0.00 52 999.2
20260504040238 54 195 1.0 2.0 0.00 0.00 0.00 53 999.5
20260504040003 54 205 2.0 3.0 0.00 0.00 0.00 52 999.6
20260504035228 56 201 1.0 2.0 0.00 0.00 0.00 50 999.6
20260504034602 55 203 1.0 3.0 0.00 0.00 0.00 49 999.8
20260504034235 56 182 1.0 2.0 0.00 0.00 0.00 49 999.8
20260504033003 55 174 1.0 4.0 0.00 0.00 0.00 49 1000.1
20260504032022 56 179 2.0 3.0 0.00 0.00 0.00 50 1000.1
20260504031604 55 207 3.0 4.0 0.00 0.00 0.00 49 1000.3
20260504030007 57 211 2.0 3.0 0.00 0.00 0.00 46 1000.5
20260504025833 58 211 1.0 2.0 0.00 0.00 0.00 46 1000.4
20260504024836 59 211 1.0 2.0 0.00 0.00 0.00 44 1000.5
20260504024602 58 211 1.0 3.0 0.00 0.00 0.00 44 1000.4
20260504023826 59 211 0.0 2.0 0.00 0.00 0.00 44 1000.5
20260504023003 60 215 1.0 3.0 0.00 0.00 0.00 43 1000.5
20260504021654 60 216 3.0 4.0 0.00 0.00 0.00 43 1000.4
20260504021602 60 215 3.0 4.0 0.00 0.00 0.00 43 1000.4
20260504020622 60 215 3.0 4.0 0.00 0.00 0.00 43 1000.4
20260504020004 60 221 3.0 4.0 0.00 0.00 0.00 43 1000.5
20260504015600 61 221 1.0 2.0 0.00 0.00 0.00 41 1000.5
20260504014611 62 264 1.0 3.0 0.00 0.00 0.00 38 1000.6
20260504013439 63 269 2.0 4.0 0.00 0.00 0.00 38 1000.7
20260504013009 63 261 2.0 5.0 0.00 0.00 0.00 37 1000.8
20260504012450 65 274 3.0 4.0 0.00 0.00 0.00 36 1000.8
20260504011604 64 274 3.0 6.0 0.00 0.00 0.00 35 1000.8
20260504011504 65 273 3.0 5.0 0.00 0.00 0.00 35 1000.8
20260504010002 66 281 4.0 5.0 0.00 0.00 0.00 32 1000.8
20260504004643 66 291 4.0 6.0 0.00 0.00 0.00 32 1000.8
20260504003136 67 287 6.0 11.0 0.00 0.00 0.00 33 1000.9
20260504003005 67 285 6.0 12.0 0.00 0.00 0.00 32 1000.9
20260504001623 67 281 6.0 14.0 0.00 0.00 0.00 33 1001.1
20260504001038 68 285 9.0 15.0 0.00 0.00 0.00 30 1001.1
20260504000031 68 277 13.0 17.0 0.00 0.00 0.00 28 1001.1
20260504000002 68 283 13.0 18.0 0.00 0.00 0.00 28 1001.1
20260503234606 68 278 11.0 18.0 0.00 0.00 0.00 29 1001.1
20260503233934 69 298 10.0 20.0 0.00 0.00 0.00 32 1001.1
20260503233006 69 298 7.0 21.0 0.00 0.00 0.00 32 1001.3
20260503232908 69 302 12.0 20.0 0.00 0.00 0.00 31 1001.2
20260503231838 69 283 11.0 18.0 0.00 0.00 0.00 30 1001.3
20260503231603 69 309 10.0 18.0 0.00 0.00 0.00 30 1001.4
20260503230828 69 300 11.0 18.0 0.00 0.00 0.00 30 1001.3
20260503230002 68 285 10.0 17.0 0.00 0.00 0.00 30 1001.4
20260503224718 70 278 10.0 16.0 0.00 0.00 0.00 32 1001.5
20260503224609 69 283 11.0 17.0 0.00 0.00 0.00 33 1001.6
20260503223722 69 304 11.0 18.0 0.00 0.00 0.00 32 1001.5
20260503223002 69 305 12.0 19.0 0.00 0.00 0.00 30 1001.7
20260503221605 68 296 14.0 21.0 0.00 0.00 0.00 29 1001.7
20260503221545 69 309 12.0 20.0 0.00 0.00 0.00 29 1001.6
20260503220003 68 300 9.0 19.0 0.00 0.00 0.00 30 1001.7
20260503215436 69 311 14.0 21.0 0.00 0.00 0.00 30 1001.7
20260503214604 68 300 13.0 22.0 0.00 0.00 0.00 28 1001.7
20260503214439 69 279 15.0 24.0 0.00 0.00 0.00 30 1001.7
20260503213007 68 316 18.0 25.0 0.00 0.00 0.00 30 1001.9
20260503212244 68 309 15.0 22.0 0.00 0.00 0.00 33 1001.8
20260503211606 68 314 18.0 23.0 0.00 0.00 0.00 32 1001.9
20260503211303 69 313 12.0 21.0 0.00 0.00 0.00 35 1001.8
20260503210244 69 293 13.0 21.0 0.00 0.00 0.00 36 1001.9
20260503210002 68 304 15.0 21.0 0.00 0.00 0.00 34 1002.0
20260503205251 68 309 11.0 19.0 0.00 0.00 0.00 34 1002.1
20260503204601 68 309 10.0 17.0 0.00 0.00 0.00 35 1002.2
20260503203058 68 276 13.0 21.0 0.00 0.00 0.00 35 1002.5
20260503203006 68 311 12.0 22.0 0.00 0.00 0.00 35 1002.5
20260503202033 67 299 9.0 19.0 0.00 0.00 0.00 35 1002.4
20260503201502 67 312 7.0 20.0 0.00 0.00 0.00 36 1002.5
20260503200107 67 326 9.0 19.0 0.00 0.00 0.00 33 1002.7
20260503194756 67 304 14.0 23.0 0.00 0.00 0.00 35 1003.0
20260503194502 67 314 14.0 24.0 0.00 0.00 0.00 38 1003.0
20260503193808 67 312 14.0 25.0 0.00 0.00 0.00 34 1003.0
20260503193101 67 304 15.0 27.0 0.00 0.00 0.00 35 1003.1
20260503192751 67 314 17.0 26.0 0.00 0.00 0.00 34 1003.0
20260503191502 66 316 14.0 28.0 0.00 0.00 0.00 36 1002.9
20260503190609 66 323 16.0 27.0 0.00 0.00 0.00 35 1003.0
20260503190110 66 321 15.0 24.0 0.00 0.00 0.00 37 1003.1
20260503185549 66 301 17.0 24.0 0.00 0.00 0.00 37 1003.1
20260503184608 67 323 16.0 22.0 0.00 0.00 0.00 37 1003.1
20260503184502 66 282 18.0 22.0 0.00 0.00 0.00 37 1003.1
20260503183621 67 300 14.0 22.0 0.00 0.00 0.00 41 1003.1
20260503183104 66 330 11.0 22.0 0.00 0.00 0.00 44 1003.3
20260503182611 66 307 13.0 24.0 0.00 0.00 0.00 40 1003.2
20260503181625 66 328 14.0 24.0 0.00 0.00 0.00 41 1003.3
20260503181504 65 351 10.0 25.0 0.00 0.00 0.00 40 1003.4
20260503180609 66 320 13.0 22.0 0.00 0.00 0.00 40 1003.4
20260503180105 65 317 16.0 23.0 0.00 0.00 0.00 42 1003.5
20260503174519 65 309 13.0 21.0 0.00 0.00 0.00 42 1003.5
20260503174503 65 293 13.0 22.0 0.00 0.00 0.00 42 1003.6
20260503173106 65 360 12.0 23.0 0.00 0.00 0.00 43 1003.6
20260503172411 65 332 13.0 23.0 0.00 0.00 0.00 42 1003.6
20260503171345 65 307 14.0 21.0 0.00 0.00 0.00 48 1003.6